Wind_Speed
22 18 27 34 28 22 15 23 22 16 15 20 25 22 21 14 11 20 19 16 18 19 17 20 19 19 18 19 21 22 21 20 21 20 19 14 15 13 12 11 11 11 13 14
15 27 31 23 22 26 25 19 18 17 18 15 16 21 21 22 21 15 16 18 19 19 20 16 16 17 19 21 21 22 21 20 22 20 17 14 13 12 11 11 11 11 12 13
19 14 26 26 25 25 26 27 15 14 17 19 15 19 20 21 22 21 21 18 18 19 21 18 15 19 21 20 22 22 22 19 20 17 17 14 13 10 11 9 9 11 10 11
21 23 15 25 29 25 26 25 18 15 11 13 19 7 23 23 21 24 23 21 21 20 19 19 17 17 19 21 20 18 19 17 17 20 16 16 14 10 9 9 8 8 10 10
20 21 26 23 29 27 25 22 25 19 16 13 16 10 8 17 21 17 22 21 20 20 21 21 19 19 21 18 16 16 16 15 16 17 12 13 9 6 5 5 6 7 8 9
18 10 14 30 21 23 20 19 23 19 16 14 19 16 14 16 18 20 20 21 22 20 20 20 20 22 17 16 16 16 18 15 16 14 11 9 8 5 5 3 5 7 8 7
17 20 20 20 27 25 20 17 9 13 13 16 23 15 10 13 10 13 19 22 22 21 20 16 17 15 17 16 15 16 18 17 15 13 11 9 8 7 4 1 2 3 5 5
8 8 20 20 18 20 27 24 15 24 22 21 8 18 12 9 8 1 3 5 10 14 15 17 17 15 20 18 18 19 21 20 19 18 16 12 11 9 9 9 7 6 5 3
5 9 16 22 22 24 28 25 26 14 23 13 13 5 3 8 10 7 10 13 13 14 16 17 16 17 19 21 23 24 25 23 22 20 18 17 17 16 16 15 11 10 8 5
6 8 10 19 24 26 27 26 22 11 22 19 16 17 9 18 15 12 13 13 12 13 15 16 15 20 22 23 25 24 25 26 25 23 22 21 21 20 17 14 14 10 8 6
5 2 7 19 16 24 23 20 20 18 13 14 14 11 7 18 17 16 13 12 12 13 14 15 15 23 24 27 28 28 27 27 25 22 19 19 20 19 16 14 14 10 8 6
6 4 2 27 8 20 21 22 27 11 16 14 8 7 2 13 15 15 14 13 14 15 17 17 16 22 27 29 28 26 24 23 21 18 17 16 17 16 14 14 14 7 7 6
3 6 5 5 6 6 11 27 28 19 7 11 9 8 8 15 16 14 15 15 16 18 18 16 16 16 25 26 25 24 22 20 18 16 14 13 10 11 15 13 16 12 9 10
9 4 8 10 18 14 15 21 28 19 9 12 5 17 17 15 17 16 16 17 17 17 17 16 16 18 24 24 24 23 21 18 17 15 14 14 13 12 19 16 11 8 8 9
6 4 7 6 21 13 22 26 29 21 17 4 17 18 18 16 17 18 18 19 20 20 20 18 18 16 21 23 22 20 18 16 13 14 16 16 13 16 13 9 6 6 7 9
10 6 6 17 22 15 13 24 23 17 7 7 19 16 18 17 16 17 18 20 21 20 20 19 18 17 19 20 19 18 16 14 13 13 18 15 12 12 9 8 7 6 7 8
5 6 4 4 20 19 3 19 22 10 17 11 17 13 20 17 16 15 16 19 19 19 18 17 17 17 18 17 18 17 15 13 14 16 14 12 11 9 9 8 8 8 8 9
6 7 4 8 16 7 10 19 27 15 11 19 22 18 18 20 19 17 15 18 18 17 18 16 17 19 17 16 16 16 15 15 15 14 13 13 12 11 10 10 10 10 10 11
11 4 2 3 1 21 13 11 26 17 11 23 20 24 23 22 22 15 14 16 17 17 16 19 19 18 16 17 16 16 17 16 14 14 13 12 10 9 10 10 10 11 11 11
5 2 3 9 6 5 14 10 7 19 8 23 27 24 25 20 9 4 12 16 17 20 20 19 18 18 18 17 15 16 15 14 12 11 11 10 10 10 10 11 11 12 12 12
3 1 1 5 5 7 9 2 11 16 10 20 19 20 23 11 10 15 14 15 20 21 20 18 18 18 16 15 14 15 13 13 11 10 10 11 11 8 9 9 10 10 12 12
2 2 2 1 5 6 11 4 3 10 21 22 19 18 22 26 24 18 17 17 17 19 19 18 18 17 15 14 13 14 13 11 10 11 10 9 9 10 10 10 11 12 14 15
2 5 3 6 3 6 3 8 15 19 25 20 21 22 27 27 23 19 17 16 16 17 16 17 17 15 14 15 14 14 12 11 9 8 8 10 11 11 11 11 13 12 14 14
3 8 4 2 8 11 11 16 18 21 23 21 22 24 25 25 22 20 16 14 15 16 17 15 14 14 14 13 15 14 12 8 8 10 11 11 12 12 13 13 13 13 15 15
5 8 5 7 9 15 15 18 22 24 25 23 25 23 23 25 22 19 15 13 17 17 16 14 14 13 13 13 14 12 11 10 9 10 10 11 11 13 13 12 14 12 14 17
8 4 3 3 9 10 8 15 23 25 24 24 25 21 20 23 22 20 16 19 18 17 15 15 14 13 11 11 12 12 12 12 10 11 11 12 11 11 11 12 11 14 14 17
Wind_Direction
194 204 214 211 216 231 258 238 225 217 225 212 225 230 222 209 214 215 228 212 206 208 206 199 195 201 197 196 197 196 194 192 185 175 182 186 191 193 195 204 212 213 215 223
180 221 226 226 224 227 235 242 232 243 206 213 218 232 238 222 224 212 213 218 217 212 210 201 194 193 192 194 196 196 191 180 178 177 185 186 190 189 197 202 207 220 223 225
204 225 218 214 215 217 222 225 225 226 215 221 245 238 226 230 224 223 226 227 214 210 207 201 196 193 197 196 195 194 189 177 178 170 163 167 175 180 191 203 203 208 215 219
234 240 252 209 214 207 217 215 213 211 194 213 208 251 205 220 215 216 219 221 219 207 206 202 195 195 193 200 196 190 184 166 173 167 171 179 186 193 209 213 210 217 215 216
223 224 227 214 213 211 228 207 219 215 238 242 184 235 216 201 211 201 209 211 212 210 203 202 196 199 204 199 183 178 169 152 162 169 174 182 198 185 183 196 192 200 207 214
245 256 243 223 212 214 210 224 203 215 227 223 224 214 212 192 211 205 194 206 206 208 204 204 196 198 191 185 170 156 135 140 148 158 174 179 170 167 170 188 211 202 207 216
229 248 234 273 206 201 198 196 176 198 209 222 207 216 244 181 180 213 194 202 205 207 207 192 186 181 170 151 140 144 141 138 147 151 151 155 157 143 141 151 196 170 170 192
231 214 213 207 215 188 190 187 190 183 192 204 239 215 195 151 119 177 165 209 196 207 191 185 175 164 138 147 146 139 138 128 123 113 107 107 117 111 96 75 83 71 84 92
257 242 179 191 205 183 188 198 211 205 201 207 167 188 120 163 161 146 156 155 146 151 159 148 141 120 126 133 125 125 122 120 117 116 115 108 101 97 83 77 77 76 72 76
296 268 180 178 202 192 186 199 220 229 186 210 176 194 179 182 166 146 134 101 102 92 93 99 105 113 117 121 126 126 123 119 117 117 113 110 104 93 90 86 79 73 65 52
237 242 169 174 197 193 182 202 203 216 205 194 172 167 75 163 148 134 119 113 106 100 101 102 106 112 117 118 116 115 113 113 110 110 107 105 100 98 97 95 83 62 46 33
209 171 207 193 195 213 199 193 206 209 188 218 193 116 353 118 111 118 109 104 100 100 107 107 110 117 117 113 110 106 105 103 102 101 97 95 101 107 100 91 79 55 33 355
241 187 167 193 194 199 215 199 206 206 217 206 189 124 115 102 111 112 111 112 111 106 98 98 102 106 112 109 106 102 100 100 102 102 101 95 92 90 83 60 51 22 357 335
170 248 250 188 191 163 201 216 207 201 230 180 211 137 145 133 125 121 117 115 109 106 107 111 109 106 103 102 98 96 94 92 92 92 85 74 59 47 49 40 25 2 336 319
15 260 250 180 142 158 203 197 197 209 216 250 137 144 150 140 131 126 121 119 114 108 105 105 103 101 98 94 92 89 86 83 82 79 67 52 47 47 42 34 8 337 324 314
338 326 329 128 149 161 188 179 188 197 183 264 136 121 127 126 118 121 125 119 112 110 107 103 100 97 92 92 90 85 80 78 76 74 64 51 38 39 28 13 354 339 323 317
313 331 310 120 154 142 163 200 163 207 190 151 142 126 121 122 121 115 110 112 112 112 108 103 93 87 85 83 84 80 77 71 65 61 55 45 36 30 19 7 356 346 338 337
297 312 320 118 127 165 142 199 156 186 117 90 104 123 110 100 92 97 108 113 111 111 106 100 97 91 86 87 87 84 73 66 58 54 47 38 32 24 15 6 359 350 343 338
218 305 48 132 236 120 127 173 164 165 104 123 124 113 111 103 85 60 100 102 102 101 99 96 95 93 88 77 71 72 65 59 55 49 43 38 32 28 21 13 0 355 345 338
88 278 287 157 101 115 142 88 175 135 143 153 147 142 138 135 117 113 107 110 106 98 92 91 88 85 76 68 67 68 63 58 54 47 44 40 33 28 22 10 5 359 351 345
346 1 318 100 104 92 53 85 187 181 148 134 144 143 147 134 107 127 116 102 96 94 92 90 83 79 73 67 67 66 62 53 45 42 38 32 26 25 22 16 15 8 3 359
301 267 18 325 112 110 355 208 124 110 116 124 122 112 110 116 118 116 112 108 100 97 91 85 83 79 70 65 65 63 54 42 41 39 35 29 27 32 28 24 20 17 11 5
344 13 61 31 39 304 1 78 118 127 126 119 118 125 122 121 119 117 114 105 101 97 100 92 87 84 74 64 58 58 45 41 39 41 38 36 32 34 32 32 24 22 15 14
62 31 58 126 11 57 64 92 104 115 117 117 116 119 121 119 119 115 112 111 108 107 101 101 95 85 78 67 59 54 44 41 45 43 35 35 39 40 39 40 32 31 23 17
355 319 71 90 86 66 77 98 111 114 114 113 114 113 115 120 118 115 112 113 112 105 99 95 89 85 80 67 58 50 45 46 48 45 39 40 37 39 44 46 42 41 41 35
339 336 345 62 66 94 85 109 116 110 109 112 116 111 116 117 118 120 112 110 107 104 99 90 84 83 82 74 63 51 47 49 50 48 41 37 38 34 43 42 44 39 47 33
Height
710 714 696 678 689 690 676 677 683 681 683 698 694 687 689 684 689 689 690 686 687 687 689 696 705 711 717 723 728 733 738 743 748 751 758 762 766 769 772 775 778 780 781 783
702 695 681 690 687 694 693 689 683 683 682 692 686 689 681 678 683 684 686 686 685 687 687 690 700 707 714 719 724 730 735 739 743 748 754 759 762 766 769 772 775 777 778 780
681 671 676 683 689 692 691 687 685 688 684 686 689 688 680 673 673 676 677 677 678 680 683 688 695 702 708 715 721 726 731 736 741 747 752 757 761 764 766 769 770 772 775 776
673 666 667 680 681 684 687 681 682 690 688 694 684 679 665 667 667 670 672 673 673 674 678 682 689 696 703 710 717 724 730 734 741 744 750 754 755 758 762 766 769 770 772 774
670 668 669 671 672 674 677 676 685 688 687 680 682 690 650 654 663 662 665 665 667 668 671 677 683 690 698 705 714 722 729 735 740 745 750 753 755 758 761 764 766 769 770 772
668 664 661 657 661 667 674 680 682 687 683 692 674 678 655 650 652 651 654 656 659 662 665 671 679 687 695 704 712 722 729 736 740 744 748 752 755 758 760 763 764 766 769 771
671 665 660 662 663 664 678 687 710 710 700 677 660 668 654 637 640 640 645 649 652 655 660 668 677 684 694 706 717 725 730 735 740 743 747 752 756 759 762 763 764 765 768 770
668 661 652 664 652 660 668 674 661 676 672 660 657 666 652 642 650 654 652 652 656 657 660 669 676 685 698 714 721 726 730 735 739 743 747 752 755 759 762 764 765 768 770 772
649 647 635 636 649 655 663 667 634 641 645 648 653 650 649 645 656 658 657 655 658 660 665 672 681 692 707 716 722 728 732 736 740 745 750 755 757 760 763 767 770 771 773 775
660 654 633 638 646 650 649 646 659 642 657 662 645 650 641 655 656 662 663 682 688 690 692 697 703 708 713 719 723 728 734 738 743 748 751 755 756 757 764 769 772 775 776 778
677 669 643 642 652 642 643 653 647 635 630 640 646 643 632 640 650 663 685 693 697 700 702 706 710 714 718 722 727 733 739 742 746 752 755 757 756 758 764 768 771 776 778 779
668 662 657 637 643 638 625 640 642 640 643 622 618 657 645 646 661 685 695 700 704 707 708 711 715 717 721 726 732 738 744 748 753 757 760 763 762 763 766 765 765 776 778 780
667 657 660 662 658 661 653 627 626 627 621 630 630 664 662 682 689 697 700 706 710 712 714 717 720 724 728 733 739 744 750 755 759 762 767 768 771 769 762 764 756 767 776 779
668 661 645 619 621 641 657 636 627 629 639 628 624 662 672 688 693 699 705 709 712 715 719 722 725 729 735 741 745 750 756 761 763 767 769 769 769 768 758 760 768 774 778 780
675 655 625 600 626 639 641 631 629 637 633 637 637 654 674 688 694 701 707 712 714 718 722 727 732 739 744 747 753 758 762 765 768 769 768 769 770 766 769 773 776 778 779 779
672 654 637 621 629 638 638 623 631 634 638 631 637 671 681 691 699 707 710 712 718 722 727 735 741 746 751 755 759 764 767 770 770 772 769 771 775 773 776 777 778 778 779 779
679 667 640 639 632 653 668 633 645 643 637 644 660 678 688 698 704 710 717 723 729 734 739 745 750 756 760 764 765 769 770 772 773 773 776 777 777 778 779 779 779 779 778 775
681 672 649 650 647 651 641 625 640 643 643 658 675 685 693 704 715 722 729 734 738 743 746 753 759 763 768 770 772 772 773 775 776 779 780 780 780 781 780 780 780 779 776 774
680 669 654 652 641 635 640 636 640 649 663 666 675 697 707 713 722 738 740 743 745 751 756 760 766 771 774 774 773 775 777 778 781 782 783 783 783 783 783 782 782 779 777 775
669 669 662 627 639 650 646 637 632 641 679 667 678 695 700 706 723 752 754 754 759 762 765 767 771 775 776 778 779 780 782 784 786 787 787 786 786 785 785 784 782 780 778 774
668 657 645 631 640 651 644 640 636 659 666 676 693 694 696 702 724 752 757 762 765 768 773 777 778 780 782 783 785 786 788 789 790 790 790 789 788 787 787 785 784 782 779 776
670 649 646 634 642 660 657 641 647 664 671 683 696 707 717 729 744 755 763 767 772 775 779 782 783 786 787 789 789 791 793 793 792 792 792 793 791 789 788 786 784 782 780 777
670 664 662 673 681 674 657 658 661 671 673 696 702 713 720 732 749 760 768 772 778 781 782 785 787 790 793 794 794 794 796 796 796 796 795 793 792 791 789 787 785 784 782 780
667 663 674 678 691 679 667 663 671 685 695 704 713 720 729 741 756 765 774 779 782 785 786 789 792 794 796 798 798 799 800 800 799 798 796 795 794 792 791 789 788 787 786 784
692 678 689 695 696 692 690 689 692 699 707 714 724 734 742 747 761 770 778 783 786 788 790 794 796 798 800 801 802 803 804 802 800 799 799 798 796 795 793 793 792 791 791 788
709 692 686 698 700 702 705 703 706 709 719 730 737 742 750 757 764 774 778 784 788 792 796 798 801 802 804 805 806 807 805 804 803 802 801 801 800 799 796 795 795 794 793 791